Weather History for Blythe, CA

Change the Weather History Date:

Thursday, January 2, 2014

  Actual Average Record
Temperature  
Mean Temperature 58 °F -  
Max Temperature 73 °F 65 °F 80 °F (1981)
Min Temperature 42 °F 41 °F 28 °F (1979)
Degree Days  
Heating Degree Days 8    
Growing Degree Days 8 (Base 50)    
Moisture  
Dew Point 24 °F    
Average Humidity 30    
Maximum Humidity 45    
Minimum Humidity 16    
Precipitation  
Precipitation 0.00 in - - ()
Sea Level Pressure  
Sea Level Pressure 30.10 in    
Wind  
Wind Speed 3 mph (West)    
Max Wind Speed 12 mph    
Max Gust Speed -    
Visibility 10 miles    
Events      
Averages and records for this station are not official NWS values.
T = Trace of Precipitation, MM = Missing Value Source: NWS Daily Summary

Daily Weather History Graph

Daily Weather History Graph

Search for Another Location

Airport:

Trip Planner

Search our weather history database for the weather conditions in past years. The results will help you decide how hot, cold, wet, or windy it might be!

Date:

Astronomy

Jan. 02, 2014 Rise Set
Actual Time 6:43 AM PST 4:42 PM PST
Civil Twilight 6:16 AM PST 5:10 PM PST
Nautical Twilight 5:45 AM PST 5:41 PM PST
Astronomical Twilight 5:14 AM PST 6:11 PM PST
Moon 7:33 AM PST (1/2) 6:38 PM PST (1/2)
Length of Visible Light 10h 53m
Length of Day
9h 58m
Waxing Crescent, 3% of the Moon is Illuminated
Jan 2
Waxing Crescent
Jan 7
First Quarter
Jan 15
Full
Jan 23
Last Quarter
Jan 30
New

Hourly Weather History & Observations

Time (PST) Temp. Windchill Dew Point Humidity Pressure Visibility Wind Dir Wind Speed Gust Speed Precip Events Conditions
12:52 AM 48.9 °F - 19.9 °F 32% 30.13 in 10.0 mi West 4.6 mph - N/A   Clear
1:52 AM 44.1 °F - 21.0 °F 40% 30.14 in 10.0 mi Calm Calm - N/A   Clear
2:52 AM 43.0 °F 40.3 °F 21.9 °F 43% 30.14 in 10.0 mi WNW 4.6 mph - N/A   Clear
3:52 AM 44.1 °F 41.5 °F 21.9 °F 42% 30.14 in 10.0 mi NNW 4.6 mph - N/A   Clear
4:52 AM 42.1 °F - 21.9 °F 45% 30.14 in 10.0 mi Calm Calm - N/A   Clear
5:52 AM 44.1 °F 42.5 °F 21.9 °F 42% 30.14 in 10.0 mi South 3.5 mph - N/A   Clear
6:52 AM 44.1 °F 42.5 °F 21.9 °F 42% 30.16 in 10.0 mi SE 3.5 mph - N/A   Clear
7:52 AM 48.0 °F - 23.0 °F 37% 30.17 in 10.0 mi Calm Calm - N/A   Clear
8:52 AM 55.0 °F - 23.0 °F 29% 30.18 in 10.0 mi WSW 3.5 mph - N/A   Clear
9:52 AM 59.0 °F - 23.0 °F 25% 30.18 in 10.0 mi Calm Calm - N/A   Clear
10:52 AM 63.0 °F - 24.1 °F 23% 30.15 in 10.0 mi Calm Calm - N/A   Clear
11:52 AM 66.9 °F - 27.0 °F 22% 30.11 in 10.0 mi Calm Calm - N/A   Clear
12:52 PM 70.0 °F - 26.1 °F 19% 30.08 in 10.0 mi Variable 3.5 mph - N/A   Clear
1:52 PM 71.1 °F - 24.1 °F 17% 30.06 in 10.0 mi SW 3.5 mph - N/A   Clear
2:52 PM 73.0 °F - 24.1 °F 16% 30.04 in 10.0 mi Calm Calm - N/A   Clear
3:52 PM 72.0 °F - 30.0 °F 21% 30.04 in 10.0 mi Calm Calm - N/A   Clear
4:52 PM 66.9 °F - 32.0 °F 27% 30.04 in 10.0 mi Calm Calm - N/A   Clear
5:52 PM 62.1 °F - 30.0 °F 30% 30.04 in 10.0 mi North 4.6 mph - N/A   Clear
6:52 PM 60.1 °F - 24.1 °F 25% 30.04 in 10.0 mi NNW 11.5 mph - N/A   Clear
7:52 PM 57.0 °F - 24.1 °F 28% 30.04 in 10.0 mi NNW 3.5 mph - N/A   Clear
8:52 PM 55.9 °F - 23.0 °F 28% 30.05 in 10.0 mi WNW 4.6 mph - N/A   Clear
9:52 PM 53.1 °F - 24.1 °F 32% 30.05 in 10.0 mi WSW 3.5 mph - N/A   Clear
10:52 PM 54.0 °F - 24.1 °F 31% 30.05 in 10.0 mi WSW 8.1 mph - N/A   Clear
11:52 PM 50.0 °F - 24.1 °F 36% 30.04 in 10.0 mi West 3.5 mph - N/A   Clear